This is the latest recevied weather packets stored in our database for station/object NC4M. If no packets are shown the sender has not sent any weather packets the latest 10 day(s).
| Time | Temp. | Humidity | Pressure | Rain* | Wind** | Luminosity | Snow |
|---|---|---|---|---|---|---|---|
| 1777911445 | 26.11° C | 43% | 1006.7 hPa | 0 mm | - | 805 W/m² | - |
| 1777910839 | 25.56° C | 43% | 1006.7 hPa | 0 mm | - | 786 W/m² | - |
| 1777910536 | 25° C | 45% | 1006.8 hPa | 0 mm | - | 778 W/m² | - |
| 1777910233 | 25° C | 43% | 1006.6 hPa | 0 mm | - | 765 W/m² | - |
| 1777909022 | 23.89° C | 45% | 1007.1 hPa | 0 mm | - | 69 W/m² | - |
| 1777908719 | 23.33° C | 49% | 1007.1 hPa | 0 mm | - | 390 W/m² | - |
| 1777908416 | 23.33° C | 45% | 1007.1 hPa | 0 mm | - | 135 W/m² | - |
| 1777908113 | 23.33° C | 47% | 1007.1 hPa | 0 mm | - | 222 W/m² | - |
| 1777907201 | 22.78° C | 50% | 1007.3 hPa | 0 mm | - | 72 W/m² | - |
| 1777906898 | 22.22° C | 48% | 1007.4 hPa | 0 mm | - | 86 W/m² | - |
| 1777906596 | 21.67° C | 50% | 1007.2 hPa | 0 mm | - | 298 W/m² | - |
| 1777906291 | 21.67° C | 50% | 1007.3 hPa | 0 mm | - | 82 W/m² | - |
| 1777905988 | 21.67° C | 54% | 1007.7 hPa | 0 mm | - | 136 W/m² | - |
| 1777905381 | 21.11° C | 50% | 1007.7 hPa | 0 mm | - | 84 W/m² | - |
| 1777905079 | 20.56° C | 57% | 1007.5 hPa | 0 mm | - | 82 W/m² | - |
| 1777904170 | 20.56° C | 52% | 1007.8 hPa | 0 mm | - | 87 W/m² | - |
| 1777903564 | 20.56° C | 56% | 1008.1 hPa | 0 mm | - | 95 W/m² | - |
| 1777902047 | 18.89° C | 60% | 1008.1 hPa | 0 mm | - | 110 W/m² | - |
| 1777901140 | 18.33° C | 60% | 1008.2 hPa | 0 mm | - | 86 W/m² | - |
| 1777900535 | 17.78° C | 63% | 1008.4 hPa | 0 mm | - | 92 W/m² | - |
| 1777900232 | 17.78° C | 64% | 1008.4 hPa | 0 mm | - | 93 W/m² | - |
| 1777898414 | 16.11° C | 64% | 1008.8 hPa | 0 mm | - | 54 W/m² | - |
| 1777898112 | 16.11° C | 66% | 1008.8 hPa | 0 mm | - | 44 W/m² | - |
| 1777897809 | 15.56° C | 68% | 1008.8 hPa | 0 mm | - | 52 W/m² | - |
| 1777897504 | 15.56° C | 68% | 1008.9 hPa | 0 mm | - | 52 W/m² | - |
* Rain latest hour (hover to see other rain measurements)
** Current wind speed in m/s (hover to see current wind gust speed)